PA3DZX-13 Weather Reports


time (UTC)temp
F
wind
direction
speed
knots
gust
knots
rain 1hr
in
rain 24hr
in
rain mn
in
humidity
%
barometer
mb
20260503010742 55 124 3.5 5.2 0.00 0.00 0.00 97 1012.7
20260503005241 55 108 1.7 3.5 0.00 0.00 0.00 98 1013.0
20260503003741 55 141 1.7 3.5 0.00 0.00 0.00 98 1013.7
20260503002241 55 195 1.7 5.2 0.00 0.00 0.00 95 1013.8
20260503000741 57 218 3.5 5.2 0.00 0.00 0.00 95 1014.3
20260502235241 55 218 3.5 5.2 0.00 0.00 0.00 97 1014.5
20260502233741 57 176 1.7 5.2 0.00 0.00 0.00 95 1014.1
20260502232241 57 130 3.5 7.0 0.00 0.00 0.00 94 1014.1
20260502230741 59 125 5.2 7.0 0.00 0.00 0.00 93 1014.1
20260502225241 59 115 5.2 7.0 0.00 0.00 0.00 93 1013.8
20260502223741 57 116 1.7 3.5 0.00 0.00 0.00 96 1013.8
20260502222241 57 35 1.7 3.5 0.00 0.00 0.00 97 1013.7
20260502220741 59 91 1.7 3.5 0.00 0.00 0.00 95 1014.0
20260502215240 59 144 1.7 5.2 0.00 0.00 0.00 95 1014.7
20260502213741 59 164 0.0 3.5 0.00 0.00 0.00 98 1015.0
20260502212239 59 68 1.7 3.5 0.00 0.00 0.00 98 1015.0
20260502210739 60 236 3.5 22.6 0.91 0.00 0.00 97 1015.2
20260502205236 66 183 11.3 20.9 0.00 0.00 0.00 70 1015.2
20260502203736 60 176 1.7 7.0 0.00 0.00 0.00 80 1014.8
20260502202235 62 188 1.7 1.7 0.00 0.00 0.00 76 1014.6
20260502200735 60 211 1.7 1.7 0.00 0.00 0.00 82 1014.3
20260502195233 62 40 1.7 3.5 0.00 0.00 0.00 74 1014.2
20260502193733 64 93 1.7 3.5 0.00 0.00 0.00 69 1014.2
20260502192232 66 44 0.0 1.7 0.00 0.00 0.00 67 1014.2
20260502190732 68 346 0.0 0.0 0.00 0.00 0.00 63 1014.2
20260502185231 69 284 1.7 3.5 0.00 0.00 0.00 59 1014.1
20260502183732 69 279 1.7 5.2 0.00 0.00 0.00 54 1014.0
20260502182230 71 250 3.5 5.2 0.00 0.00 0.00 54 1014.0
20260502180730 73 280 1.7 3.5 0.00 0.00 0.00 46 1014.1
20260502163729 75 231 5.2 9.6 0.00 0.00 0.00 46 1015.1
20260502162228 71 218 5.2 11.3 0.00 0.00 0.00 51 1015.3
20260502160728 73 236 5.2 11.3 0.00 0.00 0.00 47 1015.5
20260502152227 73 226 5.2 13.0 0.00 0.00 0.00 47 1015.9
20260502150727 73 198 5.2 11.3 0.00 0.00 0.00 47 1016.1
20260502130725 75 193 5.2 14.8 0.00 0.00 0.00 45 1017.0
20260502123724 73 209 7.0 19.1 0.00 0.00 0.00 44 1017.4
20260502122224 71 195 9.6 14.8 0.00 0.00 0.00 45 1017.6
20260502120724 73 213 7.0 14.8 0.00 0.00 0.00 44 1017.6
20260502115223 71 209 7.0 13.0 0.00 0.00 0.00 44 1017.7
20260502113723 71 225 7.0 13.0 0.00 0.00 0.00 47 1017.9
20260502112222 69 207 7.0 13.0 0.00 0.00 0.00 42 1018.0
20260502110722 69 204 7.0 13.0 0.00 0.00 0.00 43 1018.1
20260502105222 69 199 9.6 14.8 0.00 0.00 0.00 42 1018.2
20260502103722 71 204 7.0 13.0 0.00 0.00 0.00 42 1018.2
20260502102221 71 210 7.0 13.0 0.00 0.00 0.00 42 1018.2
20260502100721 71 184 7.0 13.0 0.00 0.00 0.00 43 1018.4
20260502090720 68 197 9.6 13.0 0.00 0.00 0.00 40 1018.6
20260502070716 62 187 5.2 9.6 0.00 0.00 0.00 46 1018.9
20260502065216 60 167 5.2 9.6 0.00 0.00 0.00 50 1018.8
20260502063716 59 162 3.5 7.0 0.00 0.00 0.00 51 1018.9
20260502062215 57 155 5.2 7.0 0.00 0.00 0.00 55 1019.0
20260502060716 55 152 5.2 7.0 0.00 0.00 0.00 56 1019.0
20260502055214 55 152 5.2 7.0 0.00 0.00 0.00 56 1019.0
20260502053714 53 148 5.2 7.0 0.00 0.00 0.00 60 1019.0
20260502052214 53 149 5.2 7.0 0.00 0.00 0.00 61 1019.0
20260502050714 51 147 5.2 7.0 0.00 0.00 0.00 62 1019.0
20260502045214 50 145 5.2 5.2 0.00 0.00 0.00 66 1019.1
20260502043714 48 144 3.5 5.2 0.00 0.00 0.00 66 1019.1
20260502042214 50 147 3.5 5.2 0.00 0.00 0.00 65 1019.2
20260502040714 50 154 3.5 5.2 0.00 0.00 0.00 63 1019.4
20260502035214 50 153 3.5 5.2 0.00 0.00 0.00 62 1019.5
20260502033714 50 153 5.2 5.2 0.00 0.00 0.00 62 1019.5
20260502032214 50 151 3.5 5.2 0.00 0.00 0.00 61 1019.5
20260502030714 51 152 3.5 5.2 0.00 0.00 0.00 60 1019.7
20260502025214 51 153 3.5 5.2 0.00 0.00 0.00 59 1019.7
20260502023714 51 151 3.5 5.2 0.00 0.00 0.00 57 1019.8
20260502022213 51 150 3.5 5.2 0.00 0.00 0.00 58 1019.9
20260502020713 51 153 3.5 7.0 0.00 0.00 0.00 58 1020.1
20260502015211 51 152 5.2 7.0 0.00 0.00 0.00 58 1020.1
20260502013712 53 150 3.5 5.2 0.00 0.00 0.00 56 1020.4
20260502012210 53 148 3.5 5.2 0.00 0.00 0.00 55 1020.5